Year,Month,Day,Hour,Minute,Value (Times are PST for temperature in C)
2020,04,23,00,00,7.90
2020,04,23,00,01,7.90
2020,04,23,00,02,7.90
2020,04,23,00,03,7.90
2020,04,23,00,04,7.90
2020,04,23,00,05,7.90
2020,04,23,00,06,8.00
2020,04,23,00,07,8.00
2020,04,23,00,08,8.00
2020,04,23,00,09,8.00
2020,04,23,00,10,8.00
2020,04,23,00,11,8.00
2020,04,23,00,12,8.00
2020,04,23,00,13,8.00
2020,04,23,00,14,8.00
2020,04,23,00,15,8.00
2020,04,23,00,16,7.90
2020,04,23,00,17,7.90
2020,04,23,00,18,7.90
2020,04,23,00,19,7.90
2020,04,23,00,20,7.90
2020,04,23,00,21,7.90
2020,04,23,00,22,7.90
2020,04,23,00,23,7.90
2020,04,23,00,24,7.90
2020,04,23,00,25,7.80
2020,04,23,00,26,7.80
2020,04,23,00,27,7.80
2020,04,23,00,28,7.80
2020,04,23,00,29,7.80
2020,04,23,00,30,7.80
2020,04,23,00,31,7.80
2020,04,23,00,32,7.70
2020,04,23,00,33,7.70
2020,04,23,00,34,7.70
2020,04,23,00,35,7.70
2020,04,23,00,36,7.70
2020,04,23,00,37,7.70
2020,04,23,00,38,7.70
2020,04,23,00,39,7.70
2020,04,23,00,40,7.70
2020,04,23,00,41,7.60
2020,04,23,00,42,7.60
2020,04,23,00,43,7.60
2020,04,23,00,44,7.60
2020,04,23,00,45,7.60
2020,04,23,00,46,7.60
2020,04,23,00,47,7.70
2020,04,23,00,48,7.70
2020,04,23,00,49,7.70
2020,04,23,00,50,7.70
2020,04,23,00,51,7.70
2020,04,23,00,52,7.70
2020,04,23,00,53,7.70
2020,04,23,00,54,7.70
2020,04,23,00,55,7.70
2020,04,23,00,56,7.70
2020,04,23,00,57,7.70
2020,04,23,00,58,7.70
2020,04,23,00,59,7.60
2020,04,23,01,00,7.60
2020,04,23,01,01,7.50
2020,04,23,01,02,7.50
2020,04,23,01,03,7.40
2020,04,23,01,04,7.40
2020,04,23,01,05,7.40
2020,04,23,01,06,7.40
2020,04,23,01,07,7.40
2020,04,23,01,08,7.40
2020,04,23,01,09,7.40
2020,04,23,01,10,7.40
2020,04,23,01,11,7.40
2020,04,23,01,12,7.40
2020,04,23,01,13,7.40
2020,04,23,01,14,7.40
2020,04,23,01,15,7.40
2020,04,23,01,16,7.40
2020,04,23,01,17,7.30
2020,04,23,01,18,7.30
2020,04,23,01,19,7.30
2020,04,23,01,20,7.30
2020,04,23,01,21,7.30
2020,04,23,01,22,7.30
2020,04,23,01,23,7.30
2020,04,23,01,24,7.30
2020,04,23,01,25,7.30
2020,04,23,01,26,7.30
2020,04,23,01,27,7.30
2020,04,23,01,28,7.30
2020,04,23,01,29,7.30
2020,04,23,01,30,7.30
2020,04,23,01,31,7.30
2020,04,23,01,32,7.20
2020,04,23,01,33,7.20
2020,04,23,01,34,7.20
2020,04,23,01,35,7.20
2020,04,23,01,36,7.20
2020,04,23,01,37,7.20
2020,04,23,01,38,7.30
2020,04,23,01,39,7.30
2020,04,23,01,40,7.30
2020,04,23,01,41,7.30
2020,04,23,01,42,7.30
2020,04,23,01,43,7.30
2020,04,23,01,44,7.30
2020,04,23,01,45,7.30
2020,04,23,01,46,7.30
2020,04,23,01,47,7.30
2020,04,23,01,48,7.30
2020,04,23,01,49,7.20
2020,04,23,01,50,7.20
2020,04,23,01,51,7.20
2020,04,23,01,52,7.20
2020,04,23,01,53,7.20
2020,04,23,01,54,7.10
2020,04,23,01,55,7.10
2020,04,23,01,56,7.10
2020,04,23,01,57,7.10
2020,04,23,01,58,7.10
2020,04,23,01,59,7.10
2020,04,23,02,00,7.10
2020,04,23,02,01,7.10
2020,04,23,02,02,7.10
2020,04,23,02,03,7.10
2020,04,23,02,04,7.10
2020,04,23,02,05,7.10
2020,04,23,02,06,7.10
2020,04,23,02,07,7.20
2020,04,23,02,08,7.20
2020,04,23,02,09,7.20
2020,04,23,02,10,7.20
2020,04,23,02,11,7.20
2020,04,23,02,12,7.20
2020,04,23,02,13,7.30
2020,04,23,02,14,7.30
2020,04,23,02,15,7.30
2020,04,23,02,16,7.40
2020,04,23,02,17,7.40
2020,04,23,02,18,7.40
2020,04,23,02,19,7.50
2020,04,23,02,20,7.60
2020,04,23,02,21,7.60
2020,04,23,02,22,7.60
2020,04,23,02,23,7.70
2020,04,23,02,24,7.70
2020,04,23,02,25,7.70
2020,04,23,02,26,7.70
2020,04,23,02,27,7.70
2020,04,23,02,28,7.70
2020,04,23,02,29,7.70
2020,04,23,02,30,7.70
2020,04,23,02,31,7.70
2020,04,23,02,32,7.70
2020,04,23,02,33,7.70
2020,04,23,02,34,7.70
2020,04,23,02,35,7.60
2020,04,23,02,36,7.60
2020,04,23,02,37,7.60
2020,04,23,02,38,7.60
2020,04,23,02,39,7.50
2020,04,23,02,40,7.50
2020,04,23,02,41,7.50
2020,04,23,02,42,7.50
2020,04,23,02,43,7.50
2020,04,23,02,44,7.50
2020,04,23,02,45,7.50
2020,04,23,02,46,7.50
2020,04,23,02,47,7.60
2020,04,23,02,48,7.60
2020,04,23,02,49,7.60
2020,04,23,02,50,7.60
2020,04,23,02,51,7.60
2020,04,23,02,52,7.60
2020,04,23,02,53,7.70
2020,04,23,02,54,7.70
2020,04,23,02,55,7.70
2020,04,23,02,56,7.70
2020,04,23,02,57,7.70
2020,04,23,02,58,7.70
2020,04,23,02,59,7.70
2020,04,23,03,00,7.70
2020,04,23,03,01,7.70
2020,04,23,03,02,7.70
2020,04,23,03,03,7.70
2020,04,23,03,04,7.80
2020,04,23,03,05,7.80
2020,04,23,03,06,7.80
2020,04,23,03,07,7.90
2020,04,23,03,08,8.00
2020,04,23,03,09,8.00
2020,04,23,03,10,8.10
2020,04,23,03,11,8.10
2020,04,23,03,12,8.20
2020,04,23,03,13,8.20
2020,04,23,03,14,8.20
2020,04,23,03,15,8.20
2020,04,23,03,16,8.20
2020,04,23,03,17,8.30
2020,04,23,03,18,8.30
2020,04,23,03,19,8.40
2020,04,23,03,20,8.40
2020,04,23,03,21,8.40
2020,04,23,03,22,8.40
2020,04,23,03,23,8.50
2020,04,23,03,24,8.40
2020,04,23,03,25,8.40
2020,04,23,03,26,8.40
2020,04,23,03,27,8.40
2020,04,23,03,28,8.40
2020,04,23,03,29,8.40
2020,04,23,03,30,8.30
2020,04,23,03,31,8.30
2020,04,23,03,32,8.30
2020,04,23,03,33,8.30
2020,04,23,03,34,8.30
2020,04,23,03,35,8.20
2020,04,23,03,36,8.20
2020,04,23,03,37,8.20
2020,04,23,03,38,8.20
2020,04,23,03,39,8.20
2020,04,23,03,40,8.10
2020,04,23,03,41,8.10
2020,04,23,03,42,8.10
2020,04,23,03,43,8.00
2020,04,23,03,44,8.00
2020,04,23,03,45,8.00
2020,04,23,03,46,7.90
2020,04,23,03,47,7.90
2020,04,23,03,48,7.90
2020,04,23,03,49,7.90
2020,04,23,03,50,7.90
2020,04,23,03,51,7.90
2020,04,23,03,52,7.90
2020,04,23,03,53,8.00
2020,04,23,03,54,8.10
2020,04,23,03,55,8.10
2020,04,23,03,56,8.20
2020,04,23,03,57,8.20
2020,04,23,03,58,8.30
2020,04,23,03,59,8.30
2020,04,23,04,00,8.30
2020,04,23,04,01,8.30
2020,04,23,04,02,8.30
2020,04,23,04,03,8.30
2020,04,23,04,04,8.30
2020,04,23,04,05,8.30
2020,04,23,04,06,8.30
2020,04,23,04,07,8.30
2020,04,23,04,08,8.20
2020,04,23,04,09,8.20
2020,04,23,04,10,8.20
2020,04,23,04,11,8.20
2020,04,23,04,12,8.10
2020,04,23,04,13,8.10
2020,04,23,04,14,8.10
2020,04,23,04,15,8.10
2020,04,23,04,16,8.10
2020,04,23,04,17,8.10
2020,04,23,04,18,8.10
2020,04,23,04,19,8.10
2020,04,23,04,20,8.10
2020,04,23,04,21,8.00
2020,04,23,04,22,8.00
2020,04,23,04,23,8.00
2020,04,23,04,24,8.00
2020,04,23,04,25,8.00
2020,04,23,04,26,8.00
2020,04,23,04,27,8.00
2020,04,23,04,28,8.00
2020,04,23,04,29,8.00
2020,04,23,04,30,8.00
2020,04,23,04,31,8.10
2020,04,23,04,32,8.10
2020,04,23,04,33,8.10
2020,04,23,04,34,8.10
2020,04,23,04,35,8.10
2020,04,23,04,36,8.10
2020,04,23,04,37,8.10
2020,04,23,04,38,8.10
2020,04,23,04,39,8.00
2020,04,23,04,40,8.00
2020,04,23,04,41,8.00
2020,04,23,04,42,8.00
2020,04,23,04,43,8.00
2020,04,23,04,44,8.00
2020,04,23,04,45,8.00
2020,04,23,04,46,8.10
2020,04,23,04,47,8.10
2020,04,23,04,48,8.10
2020,04,23,04,49,8.10
2020,04,23,04,50,8.10
2020,04,23,04,51,8.10
2020,04,23,04,52,8.10
2020,04,23,04,53,8.10
2020,04,23,04,54,8.10
2020,04,23,04,55,8.10
2020,04,23,04,56,8.10
2020,04,23,04,57,8.10
2020,04,23,04,58,8.10
2020,04,23,04,59,8.10
2020,04,23,05,00,8.10
2020,04,23,05,01,8.10
2020,04,23,05,02,8.10
2020,04,23,05,03,8.10
2020,04,23,05,04,8.10
2020,04,23,05,05,8.10
2020,04,23,05,06,8.10
2020,04,23,05,07,8.10
2020,04,23,05,08,8.20
2020,04,23,05,09,8.20
2020,04,23,05,10,8.20
2020,04,23,05,11,8.20
2020,04,23,05,12,8.20
2020,04,23,05,13,8.20
2020,04,23,05,14,8.20
2020,04,23,05,15,8.20
2020,04,23,05,16,8.20
2020,04,23,05,17,8.20
2020,04,23,05,18,8.20
2020,04,23,05,19,8.20
2020,04,23,05,20,8.20
2020,04,23,05,21,8.20
2020,04,23,05,22,8.20
2020,04,23,05,23,8.20
2020,04,23,05,24,8.20
2020,04,23,05,25,8.20
2020,04,23,05,26,8.20
2020,04,23,05,27,8.20
2020,04,23,05,28,8.20
2020,04,23,05,29,8.20
2020,04,23,05,30,8.20
2020,04,23,05,31,8.10
2020,04,23,05,32,8.20
2020,04,23,05,33,8.20
2020,04,23,05,34,8.20
2020,04,23,05,35,8.20
2020,04,23,05,36,8.20
2020,04,23,05,37,8.20
2020,04,23,05,38,8.20
2020,04,23,05,39,8.20
2020,04,23,05,40,8.20
2020,04,23,05,41,8.20
2020,04,23,05,42,8.20
2020,04,23,05,43,8.20
2020,04,23,05,44,8.30
2020,04,23,05,45,8.30
2020,04,23,05,46,8.30
2020,04,23,05,47,8.30
2020,04,23,05,48,8.40
2020,04,23,05,49,8.40
2020,04,23,05,50,8.40
2020,04,23,05,51,8.40
2020,04,23,05,52,8.40
2020,04,23,05,53,8.40
2020,04,23,05,54,8.40
2020,04,23,05,55,8.40
2020,04,23,05,56,8.40
2020,04,23,05,57,8.30
2020,04,23,05,58,8.30
2020,04,23,05,59,8.30
2020,04,23,06,00,8.30
2020,04,23,06,01,8.30
2020,04,23,06,02,8.30
2020,04,23,06,03,8.30
2020,04,23,06,04,8.30
2020,04,23,06,05,8.30
2020,04,23,06,06,8.30
2020,04,23,06,07,8.30
2020,04,23,06,08,8.30
2020,04,23,06,09,8.30
2020,04,23,06,10,8.30
2020,04,23,06,11,8.30
2020,04,23,06,12,8.30
2020,04,23,06,13,8.30
2020,04,23,06,14,8.30
2020,04,23,06,15,8.30
2020,04,23,06,16,8.30
2020,04,23,06,17,8.30
2020,04,23,06,18,8.30
2020,04,23,06,19,8.40
2020,04,23,06,20,8.40
2020,04,23,06,21,8.40
2020,04,23,06,22,8.40
2020,04,23,06,23,8.50
2020,04,23,06,24,8.50
2020,04,23,06,25,8.50
2020,04,23,06,26,8.50
2020,04,23,06,27,8.50
2020,04,23,06,28,8.50
2020,04,23,06,29,8.50
2020,04,23,06,30,8.50
2020,04,23,06,31,8.50
2020,04,23,06,32,8.40
2020,04,23,06,33,8.40
2020,04,23,06,34,8.40
2020,04,23,06,35,8.40
2020,04,23,06,36,8.40
2020,04,23,06,37,8.40
2020,04,23,06,38,8.40
2020,04,23,06,39,8.40
2020,04,23,06,40,8.40
2020,04,23,06,41,8.40
2020,04,23,06,42,8.40
2020,04,23,06,43,8.40
2020,04,23,06,44,8.40
2020,04,23,06,45,8.50
2020,04,23,06,46,8.50
2020,04,23,06,47,8.40
2020,04,23,06,48,8.40
2020,04,23,06,49,8.40
2020,04,23,06,50,8.40
2020,04,23,06,51,8.40
2020,04,23,06,52,8.40
2020,04,23,06,53,8.40
2020,04,23,06,54,8.40
2020,04,23,06,55,8.40
2020,04,23,06,56,8.40
2020,04,23,06,57,8.40
2020,04,23,06,58,8.50
2020,04,23,06,59,8.50
2020,04,23,07,00,8.50
2020,04,23,07,01,8.50
2020,04,23,07,02,8.50
2020,04,23,07,03,8.50
2020,04,23,07,04,8.50
2020,04,23,07,05,8.50
2020,04,23,07,06,8.50
2020,04,23,07,07,8.60
2020,04,23,07,08,8.60
2020,04,23,07,09,8.60
2020,04,23,07,10,8.60
2020,04,23,07,11,8.60
2020,04,23,07,12,8.60
2020,04,23,07,13,8.60
2020,04,23,07,14,8.60
2020,04,23,07,15,8.70
2020,04,23,07,16,8.70
2020,04,23,07,17,8.70
2020,04,23,07,18,8.70
2020,04,23,07,19,8.70
2020,04,23,07,20,8.70
2020,04,23,07,21,8.70
2020,04,23,07,22,8.70
2020,04,23,07,23,8.70
2020,04,23,07,24,8.70
2020,04,23,07,25,8.70
2020,04,23,07,26,8.70
2020,04,23,07,27,8.70
2020,04,23,07,28,8.80
2020,04,23,07,29,8.80
2020,04,23,07,30,8.80
2020,04,23,07,31,8.80
2020,04,23,07,32,8.80
2020,04,23,07,33,8.80
2020,04,23,07,34,8.80
2020,04,23,07,35,8.80
2020,04,23,07,36,8.80
2020,04,23,07,37,8.90
2020,04,23,07,38,8.90
2020,04,23,07,39,8.90
2020,04,23,07,40,8.90
2020,04,23,07,41,8.90
2020,04,23,07,42,8.90
2020,04,23,07,43,8.90
2020,04,23,07,44,8.90
2020,04,23,07,45,9.00
2020,04,23,07,46,9.00
2020,04,23,07,47,9.00
2020,04,23,07,48,9.00
2020,04,23,07,49,9.10
2020,04,23,07,50,9.10
2020,04,23,07,51,9.10
2020,04,23,07,52,9.10
2020,04,23,07,53,9.10
2020,04,23,07,54,9.20
2020,04,23,07,55,9.20
2020,04,23,07,56,9.20
2020,04,23,07,57,9.20
2020,04,23,07,58,9.30
2020,04,23,07,59,9.30
2020,04,23,08,00,9.30
2020,04,23,08,01,9.40
2020,04,23,08,02,9.40
2020,04,23,08,03,9.40
2020,04,23,08,04,9.50
2020,04,23,08,05,9.50
2020,04,23,08,06,9.60
2020,04,23,08,07,9.60
2020,04,23,08,08,9.70
2020,04,23,08,09,9.70
2020,04,23,08,10,9.70
2020,04,23,08,11,9.70
2020,04,23,08,12,9.80
2020,04,23,08,13,9.80
2020,04,23,08,14,9.80
2020,04,23,08,15,9.90
2020,04,23,08,16,10.00
2020,04,23,08,17,10.00
2020,04,23,08,18,10.10
2020,04,23,08,19,10.10
2020,04,23,08,20,10.20
2020,04,23,08,21,10.30
2020,04,23,08,22,10.30
2020,04,23,08,23,10.30
2020,04,23,08,24,10.40
2020,04,23,08,25,10.40
2020,04,23,08,26,10.50
2020,04,23,08,27,10.50
2020,04,23,08,28,10.50
2020,04,23,08,29,10.60
2020,04,23,08,30,10.60
2020,04,23,08,31,10.70
2020,04,23,08,32,10.70
2020,04,23,08,33,10.80
2020,04,23,08,34,10.80
2020,04,23,08,35,10.80
2020,04,23,08,36,10.90
2020,04,23,08,37,10.90
2020,04,23,08,38,10.90
2020,04,23,08,39,10.90
2020,04,23,08,40,11.00
2020,04,23,08,41,11.00
2020,04,23,08,42,11.00
2020,04,23,08,43,11.10
2020,04,23,08,44,11.10
2020,04,23,08,45,11.10
2020,04,23,08,46,11.10
2020,04,23,08,47,11.20
2020,04,23,08,48,11.20
2020,04,23,08,49,11.20
2020,04,23,08,50,11.30
2020,04,23,08,51,11.30
2020,04,23,08,52,11.30
2020,04,23,08,53,11.40
2020,04,23,08,54,11.40
2020,04,23,08,55,11.40
2020,04,23,08,56,11.40
2020,04,23,08,57,11.40
2020,04,23,08,58,11.40
2020,04,23,08,59,11.50
2020,04,23,09,00,11.50
2020,04,23,09,01,11.50
2020,04,23,09,02,11.60
2020,04,23,09,03,11.60
2020,04,23,09,04,11.60
2020,04,23,09,05,11.60
2020,04,23,09,06,11.70
2020,04,23,09,07,11.70
2020,04,23,09,08,11.70
2020,04,23,09,09,11.70
2020,04,23,09,10,11.70
2020,04,23,09,11,11.80
2020,04,23,09,12,11.80
2020,04,23,09,13,11.90
2020,04,23,09,14,11.90
2020,04,23,09,15,12.00
2020,04,23,09,16,12.00
2020,04,23,09,17,12.10
2020,04,23,09,18,12.10
2020,04,23,09,19,12.10
2020,04,23,09,20,12.20
2020,04,23,09,21,12.20
2020,04,23,09,22,12.20
2020,04,23,09,23,12.30
2020,04,23,09,24,12.30
2020,04,23,09,25,12.40
2020,04,23,09,26,12.40
2020,04,23,09,27,12.50
2020,04,23,09,28,12.50
2020,04,23,09,29,12.50
2020,04,23,09,30,12.60
2020,04,23,09,31,12.60
2020,04,23,09,32,12.60
2020,04,23,09,33,12.70
2020,04,23,09,34,12.70
2020,04,23,09,35,12.70
2020,04,23,09,36,12.70
2020,04,23,09,37,12.80
2020,04,23,09,38,12.80
2020,04,23,09,39,12.90
2020,04,23,09,40,12.90
2020,04,23,09,41,12.90
2020,04,23,09,42,12.90
2020,04,23,09,43,12.90
2020,04,23,09,44,12.90
2020,04,23,09,45,12.90
2020,04,23,09,46,13.00
2020,04,23,09,47,13.00
2020,04,23,09,48,13.10
2020,04,23,09,49,13.10
2020,04,23,09,50,13.10
2020,04,23,09,51,13.00
2020,04,23,09,52,13.00
2020,04,23,09,53,13.00
2020,04,23,09,54,13.00
2020,04,23,09,55,13.00
2020,04,23,09,56,13.00
2020,04,23,09,57,13.00
2020,04,23,09,58,13.00
2020,04,23,09,59,12.90
2020,04,23,10,00,12.90
2020,04,23,10,01,13.00
2020,04,23,10,02,13.00
2020,04,23,10,03,13.00
2020,04,23,10,04,13.00
2020,04,23,10,05,13.10
2020,04,23,10,06,13.10
2020,04,23,10,07,13.10
2020,04,23,10,08,13.10
2020,04,23,10,09,13.10
2020,04,23,10,10,13.10
2020,04,23,10,11,13.20
2020,04,23,10,12,13.20
2020,04,23,10,13,13.20
2020,04,23,10,14,13.30
2020,04,23,10,15,13.30
2020,04,23,10,16,13.40
2020,04,23,10,17,13.40
2020,04,23,10,18,13.50
2020,04,23,10,19,13.50
2020,04,23,10,20,13.60
2020,04,23,10,21,13.60
2020,04,23,10,22,13.60
2020,04,23,10,23,13.60
2020,04,23,10,24,13.70
2020,04,23,10,25,13.70
2020,04,23,10,26,13.70
2020,04,23,10,27,13.80
2020,04,23,10,28,13.80
2020,04,23,10,29,13.90
2020,04,23,10,30,14.00
2020,04,23,10,31,14.00
2020,04,23,10,32,14.10
2020,04,23,10,33,14.10
2020,04,23,10,34,14.10
2020,04,23,10,35,14.10
2020,04,23,10,36,14.00
2020,04,23,10,37,14.00
2020,04,23,10,38,14.00
2020,04,23,10,39,13.90
2020,04,23,10,40,13.90
2020,04,23,10,41,13.90
2020,04,23,10,42,13.90
2020,04,23,10,43,14.00
2020,04,23,10,44,14.00
2020,04,23,10,45,14.10
2020,04,23,10,46,14.10
2020,04,23,10,47,14.10
2020,04,23,10,48,14.10
2020,04,23,10,49,14.20
2020,04,23,10,50,14.20
2020,04,23,10,51,14.20
2020,04,23,10,52,14.20
2020,04,23,10,53,14.20
2020,04,23,10,54,14.20
2020,04,23,10,55,14.20
2020,04,23,10,56,14.20
2020,04,23,10,57,14.30
2020,04,23,10,58,14.30
2020,04,23,10,59,14.30
2020,04,23,11,00,14.30
2020,04,23,11,01,14.30
2020,04,23,11,02,14.30
2020,04,23,11,03,14.30
2020,04,23,11,04,14.30
2020,04,23,11,05,14.20
2020,04,23,11,06,14.20
2020,04,23,11,07,14.20
2020,04,23,11,08,14.20
2020,04,23,11,09,14.20
2020,04,23,11,10,14.30
2020,04,23,11,11,14.30
2020,04,23,11,12,14.30
2020,04,23,11,13,14.30
2020,04,23,11,14,14.30
2020,04,23,11,15,14.30
2020,04,23,11,16,14.30
2020,04,23,11,17,14.30
2020,04,23,11,18,14.20
2020,04,23,11,19,14.20
2020,04,23,11,20,14.20
2020,04,23,11,21,14.20
2020,04,23,11,22,14.20
2020,04,23,11,23,14.20
2020,04,23,11,24,14.20
2020,04,23,11,25,14.10
2020,04,23,11,26,14.10
2020,04,23,11,27,14.10
2020,04,23,11,28,14.10
2020,04,23,11,29,14.00
2020,04,23,11,30,14.00
2020,04,23,11,31,14.10
2020,04,23,11,32,14.10
2020,04,23,11,33,14.10
2020,04,23,11,34,14.10
2020,04,23,11,35,14.00
2020,04,23,11,36,14.10
2020,04,23,11,37,14.10
2020,04,23,11,38,14.10
2020,04,23,11,39,14.10
2020,04,23,11,40,14.00
2020,04,23,11,41,13.90
2020,04,23,11,42,13.90
2020,04,23,11,43,13.80
2020,04,23,11,44,13.80
2020,04,23,11,45,13.90
2020,04,23,11,46,14.00
2020,04,23,11,47,14.10
2020,04,23,11,48,14.20
2020,04,23,11,49,14.30
2020,04,23,11,50,14.40
2020,04,23,11,51,14.40
2020,04,23,11,52,14.40
2020,04,23,11,53,14.50
2020,04,23,11,54,14.50
2020,04,23,11,55,14.60
2020,04,23,11,56,14.60
2020,04,23,11,57,14.70
2020,04,23,11,58,14.80
2020,04,23,11,59,14.80
2020,04,23,12,00,14.90
2020,04,23,12,01,15.00
2020,04,23,12,02,15.00
2020,04,23,12,03,15.10
2020,04,23,12,04,15.00
2020,04,23,12,05,15.00
2020,04,23,12,06,14.80
2020,04,23,12,07,14.70
2020,04,23,12,08,14.50
2020,04,23,12,09,14.40
2020,04,23,12,10,14.30
2020,04,23,12,11,14.20
2020,04,23,12,12,14.10
2020,04,23,12,13,14.00
2020,04,23,12,14,13.90
2020,04,23,12,15,13.80
2020,04,23,12,16,13.70
2020,04,23,12,17,13.70
2020,04,23,12,18,13.50
2020,04,23,12,19,13.40
2020,04,23,12,20,13.40
2020,04,23,12,21,13.30
2020,04,23,12,22,13.20
2020,04,23,12,23,13.20
2020,04,23,12,24,13.20
2020,04,23,12,25,13.20
2020,04,23,12,26,13.10
2020,04,23,12,27,13.10
2020,04,23,12,28,13.20
2020,04,23,12,29,13.20
2020,04,23,12,30,13.20
2020,04,23,12,31,13.20
2020,04,23,12,32,13.20
2020,04,23,12,33,13.10
2020,04,23,12,34,13.10
2020,04,23,12,35,13.10
2020,04,23,12,36,13.00
2020,04,23,12,37,13.10
2020,04,23,12,38,13.10
2020,04,23,12,39,13.10
2020,04,23,12,40,13.10
2020,04,23,12,41,13.10
2020,04,23,12,42,13.10
2020,04,23,12,43,13.20
2020,04,23,12,44,13.20
2020,04,23,12,45,13.20
2020,04,23,12,46,13.20
2020,04,23,12,47,13.30
2020,04,23,12,48,13.30
2020,04,23,12,49,13.30
2020,04,23,12,50,13.40
2020,04,23,12,51,13.40
2020,04,23,12,52,13.40
2020,04,23,12,53,13.40
2020,04,23,12,54,13.40
2020,04,23,12,55,13.40
2020,04,23,12,56,13.30
2020,04,23,12,57,13.30
2020,04,23,12,58,13.40
2020,04,23,12,59,13.40
2020,04,23,13,00,13.40
2020,04,23,13,01,13.40
2020,04,23,13,02,13.50
2020,04,23,13,03,13.50
2020,04,23,13,04,13.50
2020,04,23,13,05,13.60
2020,04,23,13,06,13.60
2020,04,23,13,07,13.70
2020,04,23,13,08,13.80
2020,04,23,13,09,13.90
2020,04,23,13,10,14.00
2020,04,23,13,11,14.10
2020,04,23,13,12,14.20
2020,04,23,13,13,14.30
2020,04,23,13,14,14.40
2020,04,23,13,15,14.50
2020,04,23,13,16,14.50
2020,04,23,13,17,14.50
2020,04,23,13,18,14.50
2020,04,23,13,19,14.50
2020,04,23,13,20,14.50
2020,04,23,13,21,14.50
2020,04,23,13,22,14.60
2020,04,23,13,23,14.60
2020,04,23,13,24,14.60
2020,04,23,13,25,14.70
2020,04,23,13,26,14.70
2020,04,23,13,27,14.70
2020,04,23,13,28,14.70
2020,04,23,13,29,14.80
2020,04,23,13,30,14.80
2020,04,23,13,31,14.80
2020,04,23,13,32,14.80
2020,04,23,13,33,14.80
2020,04,23,13,34,14.70
2020,04,23,13,35,14.70
2020,04,23,13,36,14.70
2020,04,23,13,37,14.80
2020,04,23,13,38,14.90
2020,04,23,13,39,14.90
2020,04,23,13,40,15.00
2020,04,23,13,41,14.90
2020,04,23,13,42,14.80
2020,04,23,13,43,14.70
2020,04,23,13,44,14.60
2020,04,23,13,45,14.50
2020,04,23,13,46,14.40
2020,04,23,13,47,14.40
2020,04,23,13,48,14.50
2020,04,23,13,49,14.60
2020,04,23,13,50,14.60
2020,04,23,13,51,14.50
2020,04,23,13,52,14.50
2020,04,23,13,53,14.40
2020,04,23,13,54,14.40
2020,04,23,13,55,14.40
2020,04,23,13,56,14.40
2020,04,23,13,57,14.30
2020,04,23,13,58,14.30
2020,04,23,13,59,14.30
2020,04,23,14,00,14.30
2020,04,23,14,01,14.30
2020,04,23,14,02,14.30
2020,04,23,14,03,14.30
2020,04,23,14,04,14.30
2020,04,23,14,05,14.20
2020,04,23,14,06,14.30
2020,04,23,14,07,14.30
2020,04,23,14,08,14.30
2020,04,23,14,09,14.30
2020,04,23,14,10,14.40
2020,04,23,14,11,14.40
2020,04,23,14,12,14.50
2020,04,23,14,13,14.50
2020,04,23,14,14,14.60
2020,04,23,14,15,14.60
2020,04,23,14,16,14.80
2020,04,23,14,17,14.90
2020,04,23,14,18,15.00
2020,04,23,14,19,15.10
2020,04,23,14,20,15.20
2020,04,23,14,21,15.40
2020,04,23,14,22,15.40
2020,04,23,14,23,15.40
2020,04,23,14,24,15.50
2020,04,23,14,25,15.50
2020,04,23,14,26,15.60
2020,04,23,14,27,15.80
2020,04,23,14,28,15.80
2020,04,23,14,29,16.00
2020,04,23,14,30,16.00
2020,04,23,14,31,16.10
2020,04,23,14,32,16.20
2020,04,23,14,33,16.10
2020,04,23,14,34,16.10
2020,04,23,14,35,16.00
2020,04,23,14,36,15.90
2020,04,23,14,37,15.90
2020,04,23,14,38,15.90
2020,04,23,14,39,15.90
2020,04,23,14,40,15.90
2020,04,23,14,41,15.80
2020,04,23,14,42,15.80
2020,04,23,14,43,15.80
2020,04,23,14,44,15.70
2020,04,23,14,45,15.60
2020,04,23,14,46,15.60
2020,04,23,14,47,15.50
2020,04,23,14,48,15.50
2020,04,23,14,49,15.50
2020,04,23,14,50,15.50
2020,04,23,14,51,15.40
2020,04,23,14,52,15.40
2020,04,23,14,53,15.40
2020,04,23,14,54,15.50
2020,04,23,14,55,15.60
2020,04,23,14,56,15.70
2020,04,23,14,57,15.80
2020,04,23,14,58,15.80
2020,04,23,14,59,15.80
2020,04,23,15,00,15.80
2020,04,23,15,01,15.80
2020,04,23,15,02,15.70
2020,04,23,15,03,15.70
2020,04,23,15,04,15.70
2020,04,23,15,05,15.70
2020,04,23,15,06,15.70
2020,04,23,15,07,15.80
2020,04,23,15,08,15.80
2020,04,23,15,09,15.90
2020,04,23,15,10,16.00
2020,04,23,15,11,16.00
2020,04,23,15,12,16.10
2020,04,23,15,13,16.20
2020,04,23,15,14,16.30
2020,04,23,15,15,16.30
2020,04,23,15,16,16.40
2020,04,23,15,17,16.40
2020,04,23,15,18,16.50
2020,04,23,15,19,16.50
2020,04,23,15,20,16.50
2020,04,23,15,21,16.50
2020,04,23,15,22,16.50
2020,04,23,15,23,16.50
2020,04,23,15,24,16.50
2020,04,23,15,25,16.50
2020,04,23,15,26,16.40
2020,04,23,15,27,16.30
2020,04,23,15,28,16.20
2020,04,23,15,29,16.20
2020,04,23,15,30,16.10
2020,04,23,15,31,16.10
2020,04,23,15,32,16.10
2020,04,23,15,33,16.00
2020,04,23,15,34,16.00
2020,04,23,15,35,16.00
2020,04,23,15,36,16.00
2020,04,23,15,37,16.10
2020,04,23,15,38,16.10
2020,04,23,15,39,16.20
2020,04,23,15,40,16.20
2020,04,23,15,41,16.20
2020,04,23,15,42,16.30
2020,04,23,15,43,16.20
2020,04,23,15,44,16.20
2020,04,23,15,45,16.10
2020,04,23,15,46,16.10
2020,04,23,15,47,16.00
2020,04,23,15,48,15.90
2020,04,23,15,49,15.90
2020,04,23,15,50,15.90
2020,04,23,15,51,15.90
2020,04,23,15,52,15.90
2020,04,23,15,53,15.80
2020,04,23,15,54,15.70
2020,04,23,15,55,15.70
2020,04,23,15,56,15.70
2020,04,23,15,57,15.70
2020,04,23,15,58,15.70
2020,04,23,15,59,15.80
2020,04,23,16,00,15.80
2020,04,23,16,01,15.90
2020,04,23,16,02,15.90
2020,04,23,16,03,16.00
2020,04,23,16,04,16.00
2020,04,23,16,05,16.10
2020,04,23,16,06,16.10
2020,04,23,16,07,16.10
2020,04,23,16,08,16.10
2020,04,23,16,09,16.10
2020,04,23,16,10,16.10
2020,04,23,16,11,16.10
2020,04,23,16,12,16.10
2020,04,23,16,13,16.00
2020,04,23,16,14,16.00
2020,04,23,16,15,16.00
2020,04,23,16,16,16.00
2020,04,23,16,17,16.00
2020,04,23,16,18,16.00
2020,04,23,16,19,16.00
2020,04,23,16,20,16.00
2020,04,23,16,21,16.00
2020,04,23,16,22,16.10
2020,04,23,16,23,16.10
2020,04,23,16,24,16.10
2020,04,23,16,25,16.10
2020,04,23,16,26,16.10
2020,04,23,16,27,16.20
2020,04,23,16,28,16.20
2020,04,23,16,29,16.20
2020,04,23,16,30,16.20
2020,04,23,16,31,16.30
2020,04,23,16,32,16.30
2020,04,23,16,33,16.40
2020,04,23,16,34,16.40
2020,04,23,16,35,16.40
2020,04,23,16,36,16.40
2020,04,23,16,37,16.30
2020,04,23,16,38,16.30
2020,04,23,16,39,16.20
2020,04,23,16,40,16.20
2020,04,23,16,41,16.10
2020,04,23,16,42,16.10
2020,04,23,16,43,16.10
2020,04,23,16,44,16.00
2020,04,23,16,45,15.90
2020,04,23,16,46,15.90
2020,04,23,16,47,15.90
2020,04,23,16,48,15.90
2020,04,23,16,49,15.90
2020,04,23,16,50,16.00
2020,04,23,16,51,16.00
2020,04,23,16,52,16.00
2020,04,23,16,53,16.00
2020,04,23,16,54,16.10
2020,04,23,16,55,16.10
2020,04,23,16,56,16.10
2020,04,23,16,57,16.10
2020,04,23,16,58,16.10
2020,04,23,16,59,16.20
2020,04,23,17,00,16.20
2020,04,23,17,01,16.20
2020,04,23,17,02,16.20
2020,04,23,17,03,16.20
2020,04,23,17,04,16.20
2020,04,23,17,05,16.20
2020,04,23,17,06,16.20
2020,04,23,17,07,16.30
2020,04,23,17,08,16.30
2020,04,23,17,09,16.30
2020,04,23,17,10,16.30
2020,04,23,17,11,16.30
2020,04,23,17,12,16.30
2020,04,23,17,13,16.30
2020,04,23,17,14,16.30
2020,04,23,17,15,16.30
2020,04,23,17,16,16.30
2020,04,23,17,17,16.30
2020,04,23,17,18,16.30
2020,04,23,17,19,16.20
2020,04,23,17,20,16.20
2020,04,23,17,21,16.20
2020,04,23,17,22,16.20
2020,04,23,17,23,16.20
2020,04,23,17,24,16.30
2020,04,23,17,25,16.30
2020,04,23,17,26,16.30
2020,04,23,17,27,16.30
2020,04,23,17,28,16.30
2020,04,23,17,29,16.30
2020,04,23,17,30,16.30
2020,04,23,17,31,16.30
2020,04,23,17,32,16.30
2020,04,23,17,33,16.40
2020,04,23,17,34,16.40
2020,04,23,17,35,16.40
2020,04,23,17,36,16.30
2020,04,23,17,37,16.30
2020,04,23,17,38,16.30
2020,04,23,17,39,16.20
2020,04,23,17,40,16.20
2020,04,23,17,41,16.20